Location: Beverley
(50.2667°N, 107.9667°W)
Time: 20:00:19
(UTC+00:00)

QB50P2 - Visible Passes

Search period start: 26 June 2022 00:00
Search period end: 06 July 2022 00:00
Orbit: 589 x 607 km, 97.9° (Epoch: 26 June)

Date Brightness Start Highest point End Pass type
(mag) Time Alt. Az. Time Alt. Az. Time Alt. Az.
26 Jun ? 07:19:04 10° ENE 07:20:44 12° E 07:22:24 10° ESE visible
26 Jun ? 08:52:44 10° NNE 08:56:59 83° WNW 08:59:53 20° SSW visible
27 Jun ? 07:28:50 10° NE 07:31:20 15° E 07:33:46 10° SE visible
27 Jun ? 09:03:14 10° N 09:07:26 66° WNW 09:10:28 18° SSW visible
28 Jun ? 07:38:53 10° NE 07:41:55 19° E 07:44:21 12° SE visible
28 Jun ? 09:13:46 10° N 09:17:53 52° WNW 09:21:03 16° SW visible
29 Jun ? 07:49:03 10° NE 07:52:29 23° E 07:54:55 15° SE visible
29 Jun ? 09:24:20 10° N 09:28:19 41° WNW 09:31:38 14° SW visible
30 Jun ? 07:59:19 10° NE 08:03:03 29° E 08:05:29 17° SE visible
30 Jun ? 09:34:55 10° N 09:38:43 33° WNW 09:42:12 12° SW visible
01 Jul ? 08:09:38 10° NNE 08:13:35 36° E 08:16:03 19° SSE visible
01 Jul ? 09:45:32 10° N 09:49:07 27° WNW 09:52:44 10° WSW visible
02 Jul ? 08:19:59 10° NNE 08:24:05 46° E 08:26:37 21° SSE visible
02 Jul ? 09:56:11 10° N 09:59:30 23° WNW 10:02:49 10° WSW visible
03 Jul ? 08:30:23 10° NNE 08:34:35 59° ESE 08:37:10 22° S visible
03 Jul ? 10:06:54 10° NNW 10:09:51 19° WNW 10:12:50 10° WSW visible
04 Jul ? 08:40:48 10° NNE 08:45:03 75° ESE 08:47:43 22° S visible
04 Jul ? 10:17:40 10° NNW 10:20:12 16° WNW 10:22:43 10° W visible
05 Jul ? 07:17:45 10° ENE 07:19:14 12° E 07:20:44 10° ESE visible
05 Jul ? 08:51:15 10° NNE 08:55:31 87° WNW 08:58:16 22° SSW visible
